Weather History for Rapid City, SD

Change the Weather History Date:

Monday, August 5, 2013

  Actual Average Record
Temperature  
Mean Temperature 72 °F 74 °F  
Max Temperature 83 °F 88 °F 102 °F (1964)
Min Temperature 60 °F 59 °F 45 °F (1980)
Degree Days  
Heating Degree Days 0 0  
Month to date heating degree days 0 0  
Since 1 June heating degree days 85 114  
Since 1 July heating degree days 5 15  
Cooling Degree Days 7 9  
Month to date cooling degree days 32 45  
Year to date cooling degree days 378 394  
Since 1 June cooling degree days 370 379  
Growing Degree Days 21 (Base 50)    
Moisture  
Dew Point 62 °F    
Average Humidity 72    
Maximum Humidity 100    
Minimum Humidity 43    
Precipitation  
Precipitation 0.85 in 0.06 in 1.75 in (2014)
Month to date precipitation 1.47 0.31  
Year to date precipitation 13.12 11.38  
Snow  
Snow 0.00 in 0.00 in - ()
Month to date snowfall 0.0 0.0  
Since 1 June snowfall 0.0 0.0  
Since 1 July snowfall 0.0 0.0  
Snow Depth 0.00 in    
Sea Level Pressure  
Sea Level Pressure 29.94 in    
Wind  
Wind Speed 8 mph (North)    
Max Wind Speed 24 mph    
Max Gust Speed 44 mph    
Visibility 8 miles    
Events Rain , Thunderstorm    
T = Trace of Precipitation, MM = Missing Value Source: NWS Daily Summary

Daily Weather History Graph

Daily Weather History Graph

Search for Another Location

Airport:

Trip Planner

Search our weather history database for the weather conditions in past years. The results will help you decide how hot, cold, wet, or windy it might be!

Date:

Astronomy

Aug. 05, 2013 Rise Set
Actual Time 5:45 AM MDT 8:10 PM MDT
Civil Twilight 5:12 AM MDT 8:42 PM MDT
Nautical Twilight 4:32 AM MDT 9:23 PM MDT
Astronomical Twilight 3:46 AM MDT 10:08 PM MDT
Moon 4:42 AM MDT (8/5) 7:10 PM MDT (8/5)
Length of Visible Light 15h 30m
Length of Day
14h 25m
Waning Crescent, 1% of the Moon is Illuminated
Aug 5
Waning Crescent
Aug 6
New
Aug 14
First Quarter
Aug 20
Full
Aug 28
Last Quarter

Hourly Weather History & Observations

Time (MDT) Temp. Heat Index Dew Point Humidity Pressure Visibility Wind Dir Wind Speed Gust Speed Precip Events Conditions
12:22 AM 66.2 °F - 64.4 °F 94% 30.03 in 10.0 mi NW 8.1 mph - 0.00 in Rain Light Rain
12:43 AM 66.2 °F - 64.4 °F 94% 30.03 in 7.0 mi North 5.8 mph - 0.04 in Rain , Thunderstorm Thunderstorms and Rain
12:52 AM 66.0 °F - 64.0 °F 93% 29.97 in 5.0 mi WNW 8.1 mph - 0.07 in Rain , Thunderstorm Light Thunderstorms and Rain
1:06 AM 66.2 °F - 64.4 °F 94% 30.08 in 3.0 mi NW 15.0 mph 26.5 mph 0.03 in Rain , Thunderstorm Heavy Thunderstorms and Rain
1:11 AM 66.2 °F - 64.4 °F 94% 30.08 in 1.8 mi West 16.1 mph 26.5 mph 0.14 in Rain , Thunderstorm Heavy Thunderstorms and Rain
1:21 AM 64.4 °F - 60.8 °F 88% 30.01 in 3.0 mi Variable 4.6 mph 25.3 mph 0.26 in Rain , Thunderstorm Light Thunderstorms and Rain
1:31 AM 64.4 °F - 60.8 °F 88% 29.96 in 9.0 mi East 6.9 mph - 0.28 in Rain , Thunderstorm Light Thunderstorms and Rain
1:52 AM 66.0 °F - 64.0 °F 93% 29.92 in 10.0 mi North 9.2 mph - 0.28 in   Partly Cloudy
2:40 AM 66.2 °F - 64.4 °F 94% 30.02 in 10.0 mi WNW 9.2 mph - N/A Thunderstorm Thunderstorm
2:52 AM 66.0 °F - 64.0 °F 93% 29.94 in 10.0 mi NW 10.4 mph - 0.00 in Rain , Thunderstorm Light Rain
3:19 AM 66.2 °F - 64.4 °F 94% 30.04 in 10.0 mi WNW 8.1 mph - 0.00 in   Mostly Cloudy
3:42 AM 66.2 °F - 64.4 °F 94% 30.04 in 10.0 mi West 8.1 mph - 0.00 in Rain , Thunderstorm Light Rain
3:52 AM 66.9 °F - 64.0 °F 90% 29.94 in 5.0 mi NNE 4.6 mph - 0.02 in Rain Rain
4:52 AM 64.9 °F - 63.0 °F 93% 29.91 in 10.0 mi East 5.8 mph - 0.04 in   Clear
5:52 AM 63.0 °F - 62.1 °F 97% 29.93 in 10.0 mi North 10.4 mph - N/A   Clear
6:52 AM 66.0 °F - 64.0 °F 93% 29.94 in 8.0 mi NNW 11.5 mph - N/A   Clear
7:52 AM 69.1 °F - 66.0 °F 90% 29.96 in 8.0 mi North 10.4 mph - N/A   Clear
8:52 AM 72.0 °F - 66.0 °F 81% 29.96 in 10.0 mi North 9.2 mph - N/A   Partly Cloudy
9:52 AM 73.9 °F - 66.0 °F 76% 29.97 in 10.0 mi NNE 10.4 mph - N/A   Scattered Clouds
10:52 AM 75.0 °F - 64.0 °F 69% 29.98 in 10.0 mi ENE 6.9 mph - N/A   Mostly Cloudy
11:40 AM 77.0 °F - 64.4 °F 65% 30.04 in 10.0 mi Calm Calm - N/A   Scattered Clouds
11:52 AM 75.9 °F - 63.0 °F 64% 29.97 in 10.0 mi Calm Calm - N/A   Clear
12:52 PM 79.0 °F - 62.1 °F 56% 29.95 in 10.0 mi Calm Calm - N/A   Clear
1:52 PM 81.0 °F 81.6 °F 60.1 °F 49% 29.92 in 10.0 mi SSE 4.6 mph - N/A   Clear
2:52 PM 82.9 °F 82.6 °F 57.9 °F 42% 29.90 in 10.0 mi SSE 4.6 mph - N/A   Clear
3:24 PM 75.2 °F - 66.2 °F 73% 29.96 in 10.0 mi ENE 3.5 mph - 0.03 in Rain , Thunderstorm Light Rain
3:39 PM 80.6 °F 82.3 °F 64.4 °F 58% 29.97 in 10.0 mi ESE 5.8 mph - 0.04 in   Scattered Clouds
3:52 PM 82.0 °F 83.4 °F 64.0 °F 54% 29.87 in 10.0 mi East 8.1 mph - 0.04 in   Clear
4:52 PM 82.9 °F 83.7 °F 62.1 °F 49% 29.86 in 10.0 mi SE 11.5 mph 19.6 mph N/A   Clear
5:52 PM 79.0 °F - 61.0 °F 54% 29.84 in 10.0 mi ESE 6.9 mph - N/A   Clear
6:42 PM 78.8 °F - 60.8 °F 54% 29.92 in 10.0 mi South 11.5 mph - 0.00 in Rain , Thunderstorm Light Thunderstorms and Rain
6:52 PM 71.1 °F - 57.0 °F 61% 29.86 in 4.0 mi SSW 17.3 mph 43.7 mph 0.01 in Rain , Thunderstorm Heavy Thunderstorms and Rain
7:21 PM 66.2 °F - 57.2 °F 73% 29.89 in 10.0 mi SSE 11.5 mph - 0.04 in   Clear
7:52 PM 69.1 °F - 61.0 °F 75% 29.86 in 10.0 mi West 11.5 mph - 0.04 in   Clear
8:52 PM 68.0 °F - 55.9 °F 65% 29.83 in 10.0 mi WSW 5.8 mph - N/A   Clear
9:52 PM 70.0 °F - 57.0 °F 63% 29.87 in 10.0 mi WSW 4.6 mph - N/A   Clear
10:43 PM 68.0 °F - 57.2 °F 68% 29.91 in 9.0 mi WSW 4.6 mph - 0.00 in Rain , Thunderstorm Light Rain
10:52 PM 66.0 °F - 60.1 °F 81% 29.83 in 4.0 mi East 6.9 mph - 0.04 in Rain , Thunderstorm Thunderstorms and Rain
11:41 PM 60.8 °F - 59.0 °F 94% 29.96 in 2.5 mi NNE 12.7 mph 27.6 mph 0.19 in Rain , Thunderstorm Thunderstorms and Rain
11:50 PM 60.8 °F - 59.0 °F 94% 29.95 in 4.0 mi North 13.8 mph 27.6 mph 0.22 in Rain , Thunderstorm Light Thunderstorms and Rain
11:52 PM 61.0 °F - 57.9 °F 90% 29.89 in 5.0 mi NNE 15.0 mph 27.6 mph 0.22 in Rain , Thunderstorm Light Thunderstorms and Rain